Flag for Austria Weather past 2 weeks in Fürstenfeld, Styria, Austria

Now
79 °F

Overcast.


Feels Like: 80 °F
Forecast: 57 / 76 °F
Wind: 2 mph from Southeast

Location: Murska Sobota

Current Time: Sep 2, 2015 at 3:55:17 PM

Latest Report: Sep 2, 2015 at 3:00 PM


Visibility: 13 mi

Pressure: 29.91 "Hg

Humidity: 50%

Dew point: 59 °F

Location of FürstenfeldLocation

Historic Weather in Fürstenfeld — Graph

°F

Fürstenfeld temperature yesterday

Maximum temperature yesterday: 91 °F (at 3:00 PM)
Minimum temperature yesterday: 60 °F (at 7:00 AM)
Average temperature yesterday: 76 °F

Past Weeks' High & Low Weather Summary

 TemperatureHumidityPressure
High91 °F (Aug 29, 2:00 PM)99% (Aug 27, 7:00 AM)30.24 "Hg (Aug 27, 7:00 AM)
Low53 °F (Aug 27, 6:00 AM)27% (Sep 1, 3:00 PM)29.75 "Hg (Sep 1, 6:00 PM)
Average69 °F73%30.04 "Hg
* Reported Aug 18 2:00 PM — Sep 2 2:00 PM, Fürstenfeld, Weather by CustomWeather, © 2015

Note: Actual official high and low records may vary slightly from our data, if they occured in-between our weather recording intervals... More about our weather records

Advertising

Fürstenfeld weather history for previous 24 hours

 ConditionsComfort  
Time TempWeatherWind HumidityBarometerVisibility
2:00 PM
Wed, Sep 2
79 °FWarm.5 mph51%29.92 "HgN/A
1:00 PM79 °FWarm.2 mph52%29.93 "HgN/A
11:00 AM76 °FMild.6 mph58%29.94 "HgN/A
10:00 AM72 °FMild.2 mph64%29.94 "HgN/A
9:00 AM70 °FMild.2 mph66%29.93 "HgN/A
8:00 AM65 °FMild.1 mph78%29.93 "HgN/A
7:00 AM59 °FCool.1 mph90%29.91 "HgN/A
5:00 AM59 °FCool.1 mph88%29.88 "HgN/A
4:00 AM60 °FCool.1 mph85%29.86 "HgN/A
3:00 AM60 °FCool.1 mph89%29.84 "HgN/A
2:00 AM61 °FCool.1 mph86%29.82 "HgN/A
1:00 AM63 °FMild.1 mph80%29.80 "HgN/A
12:00 AM63 °FMild.1 mph79%29.79 "HgN/A
11:00 PM
Tue, Sep 1
67 °FMild.1 mph72%29.78 "HgN/A
10:00 PM74 °FMild.2 mph56%29.77 "HgN/A
9:00 PM75 °FMild.2 mph53%29.78 "HgN/A
8:00 PM80 °FPleasantly warm.1 mph39%29.77 "HgN/A
7:00 PM86 °FPleasantly warm.3 mph33%29.75 "HgN/A
6:00 PM89 °FHot.6 mph32%29.75 "HgN/A
5:00 PM90 °FHot.7 mph28%29.76 "HgN/A
3:00 PM91 °FSunny.8 mph27%29.78 "Hg12 mi
Weather by CustomWeather, © 2015

See weather overviewHow to use our weather pages